This demonstration page uses our WeatherBlox Daily Observations layout. Learn more.

Left ArrowRight Arrow

34.02893, -84.19858

Hourly Observations for November 14, 2019

Temp ( °F °C ) Dew Point ( °F °C ) Humidity (%) Winds ( mph kmh ) Pressure ( in mb ) Visibility ( mi km ) Precip ( " mm )
12:53 am 00:53 Clear 33 0.6 19 -7.2 56 56 E 3 6 30.37 1028 10 16 0.00 0.00
1:53 am 01:53 Clear 32 0 20 -6.7 61 61 Calm 30.35 1028 10 16 0.00 0.00
2:53 am 02:53 Clear 32 0 20 -6.7 61 61 ENE 7 11 30.34 1027 10 16 0.00 0.00
3:53 am 03:53 Partly Cloudy 32 0 20 -6.7 61 61 VRB 5 7 30.33 1027 10 16 0.00 0.00
4:09 am 04:09 Cloudy 33 0.6 21 -6.1 61 61 ENE 5 7 30.34 1027 10 16 0.00 0.00
4:53 am 04:53 Cloudy 34 1.1 20 -6.7 56 56 ENE 5 7 30.33 1027 10 16 0.00 0.00
5:53 am 05:53 Cloudy 34 1.1 20 -6.7 56 56 VRB 3 6 30.34 1028 10 16 0.00 0.00
6:53 am 06:53 Cloudy 35 1.7 19 -7.2 52 52 VRB 3 6 30.37 1028 10 16 0.00 0.00
7:53 am 07:53 Cloudy 36 2.2 19 -7.2 50 50 VRB 6 9 30.37 1028 10 16 0.00 0.00
8:53 am 08:53 Cloudy 37 2.8 20 -6.7 50 50 ENE 8 13 30.37 1029 10 16 0.00 0.00
9:53 am 09:53 Cloudy 38 3.3 22 -5.6 52 52 E 5 7 30.36 1028 10 16 0.00 0.00
10:18 am 10:18 Cloudy 39 3.9 22 -5.6 50 50 ESE 7 11 30.36 1028 10 16 0.00 0.00
10:53 am 10:53 Cloudy 39 3.9 24 -4.4 55 55 Calm 30.36 1028 10 16 0.00 0.00
11:53 am 11:53 Cloudy 41 5 27 -2.8 57 57 VRB 3 6 30.35 1028 10 16 0.00 0.00
12:53 pm 12:53 Cloudy 42 5.6 28 -2.2 58 58 N 3 6 30.34 1027 10 16 0.00 0.00
1:00 pm 13:00 Cloudy 41 5 28 -2.2 60 60 NNE 3 6 30.32 1027 10 16 0.00 0.00
1:53 pm 13:53 Cloudy 42 5.6 28 -2.2 58 58 NNE 5 7 30.31 1026 10 16 0.00 0.00
2:44 pm 14:44 Cloudy 42 5.6 30 -1.1 62 62 NNE 6 9 30.29 1026 10 16 0.00 0.00
2:53 pm 14:53 Cloudy with Light Rain 42 5.6 30 -1.1 62 62 ENE 5 7 30.29 1026 10 16 0.00 0.00
3:53 pm 15:53 Cloudy with Light Rain 41 5 31 -0.6 67 67 NNE 8 13 30.28 1025 10 16 0.00 0.00
4:53 pm 16:53 Cloudy 42 5.6 31 -0.6 65 65 Calm 30.29 1026 10 16 0.00 0.00
5:00 pm 17:00 Cloudy 42 5.6 31 -0.6 65 65 Calm 30.28 1025 10 16 0.00 0.00
5:53 pm 17:53 Cloudy 42 5.6 32 0 68 68 NNE 6 9 30.28 1026 10 16 0.00 0.00
6:53 pm 18:53 Cloudy 42 5.6 33 0.6 71 71 N 7 11 30.28 1025 10 16 0.00 0.00
7:53 pm 19:53 Cloudy with Light Rain 42 5.6 34 1.1 73 73 Calm 30.28 1025 10 16 0.00 0.00
8:53 pm 20:53 Cloudy with Light Rain 41 5 38 3.3 89 89 NNE 3 6 30.28 1025 6 10 0.04 1.02
9:53 pm 21:53 Cloudy with Light Rain 41 5 38 3.3 89 89 NNE 5 7 30.28 1025 6 10 0.05 1.27
10:53 pm 22:53 Cloudy with Light Rain 41 5 39 3.9 93 93 NNE 6 9 30.27 1025 5 8 0.05 1.27
11:53 pm 23:53 Cloudy with Light Rain 41 5 40 4.4 96 96 NNE 7 11 30.27 1025 4 6 0.06 1.52

Powered by AerisWeather